Location: Baix
(44.7118°N, 4.7648°E)
Time: 18:10:06
(UTC+00:00)

Tiros 1 - Visible Passes

Search period start: 04 December 2020 00:00
Search period end: 14 December 2020 00:00
Orbit: 630 x 664 km, 48.4° (Epoch: 03 December)

Date Brightness Start Highest point End Pass type
(mag) Time Alt. Az. Time Alt. Az. Time Alt. Az.
04 Dec 7.1 17:22:09 10° WNW 17:26:59 81° NNE 17:30:15 20° ESE visible
04 Dec 8.9 19:04:40 10° W 19:07:57 30° WSW 19:07:57 30° WSW visible
05 Dec 7.5 17:48:13 10° WNW 17:52:59 64° SSW 17:55:41 25° SE visible
05 Dec 9.8 19:31:35 10° W 19:33:23 15° WSW 19:33:23 15° WSW visible
06 Dec 7.2 16:31:58 10° WNW 16:36:49 78° NNE 16:41:36 10° ESE visible
06 Dec 8.6 18:14:27 10° WNW 18:18:48 35° SW 18:21:21 20° SSE visible
07 Dec 7.5 16:58:02 10° WNW 17:02:50 68° SSW 17:07:33 10° SE visible
07 Dec 9.7 18:41:14 10° W 18:44:25 18° SW 18:47:20 11° S visible
08 Dec 8.6 17:24:14 10° WNW 17:28:40 37° SW 17:33:03 10° SSE visible
09 Dec 9.8 17:50:55 10° W 17:54:18 19° SW 17:57:39 10° S visible
10 Dec 8.7 16:34:01 10° WNW 16:38:31 40° SW 16:42:59 10° SSE visible
11 Dec 9.9 17:00:37 10° W 17:04:11 21° SW 17:07:43 10° S visible
